[[{"header":{"parameterUnit":"m.s-1","parameterCategory":1,"la1":30.2991,"la2":30.254,"lo1":-89.0895,"lo2":-89.0444,"dy":0.0017,"dx":0.0017,"nx":28,"ny":28,"refTime":"2025-05-30T03:00:00:Z","depth":0,"parameterNumber":2,"parameterNumberName":"U-component_of_WINDS"},"data":[0,0,0,0,0,0,0,0,0,0,0,0,0,0,0,0,0,0,0,0,0,0,0,0,0,0,0,0,0,0,0,0,0,0,0,0,0,0,0,0,0,0,0,0,0,0,0,0,0,0,0,0,0,0,0,0,0,0,2.1071,2.1073,0,2.122,2.1221,2.1223,2.1223,2.1221,2.1219,2.1217,2.1377,2.1383,2.1389,0,0,0,0,0,0,0,0,0,0,0,0,0,2.0794,2.0799,2.1071,2.1073,2.1075,2.1219,2.1221,2.1224,2.1223,2.1221,2.1219,2.1216,2.1375,2.1382,2.1389,0,0,0,0,0,0,0,0,0,0,0,0,0,2.0926,2.0801,2.1071,2.1092,2.1095,2.1219,2.1222,2.1224,2.1224,2.1221,2.1218,2.1215,2.1372,2.1381,2.139,2.1505,0,0,2.1418,2.1422,0,0,0,0,0,0,0,0,2.0918,2.0936,2.1087,2.1091,2.1095,2.12,2.1182,2.1318,2.1225,2.1175,2.1217,2.1214,2.1321,2.1334,2.1368,2.1512,2.1519,2.1419,2.1424,2.1428,2.1431,0,0,0,0,0,0,0,2.0909,2.093,2.113,2.1089,2.1094,2.1096,2.1112,2.1208,2.1263,2.1179,2.118,2.1197,2.1322,2.136,2.1372,2.1522,2.1419,2.1427,2.1432,2.1436,2.1768,2.1771,0,0,0,0,0,0,2.0895,2.0922,2.1125,2.1134,2.0997,2.1104,2.1121,2.1169,2.1262,2.1273,2.1199,2.1196,2.1346,2.1362,2.1378,2.1518,2.1428,2.1437,2.1442,2.1764,2.1768,2.1772,0,0,0,0,0,0,2.0889,2.0913,2.1119,2.1028,2.1055,2.1111,2.1166,2.1174,2.1211,2.1277,2.1287,2.1227,2.1344,2.1365,2.1473,2.1523,2.1441,2.1449,2.176,2.1766,2.177,2.1799,0,0,0,0,0,0,2.0881,2.0911,2.0953,2.1029,2.106,2.121,2.1169,2.1179,2.1226,2.1223,2.1305,2.1316,2.1343,2.1459,2.1482,2.1534,2.1456,2.1756,2.1763,2.1769,2.1794,2.1804,2.1813,0,0,0,0,0,2.0871,2.0957,2.0955,2.098,2.1113,2.1213,2.123,2.1257,2.123,2.1274,2.1316,2.1314,2.1514,2.147,2.1496,2.1552,2.1753,2.1761,2.1768,2.1789,2.1802,2.1813,0,0,0,0,0,0,2.0888,2.0967,2.0966,2.1079,2.1139,2.1212,2.1269,2.127,2.1341,2.1336,2.1369,2.1388,2.1496,2.1535,2.1484,2.1668,2.1631,2.1644,2.1638,2.1651,2.166,2.1649,2.1464,0,0,0,0,0,2.0904,2.0975,2.1042,2.1135,2.1165,2.1212,2.1256,2.1272,2.1336,2.1362,2.1412,2.1477,2.1555,2.1605,2.168,2.18,2.1818,2.1851,2.1861,2.1869,2.1879,2.1946,2.1961,2.1797,2.1797,2.1797,0,0,2.0939,2.0991,2.1035,2.114,2.1188,2.1263,2.1233,2.1314,2.1371,2.1375,2.1479,2.1519,2.1593,2.1707,2.176,2.1743,2.1929,2.1878,2.1884,2.1891,2.1955,2.1971,2.1985,2.1802,2.1801,2.18,0,0,2.1041,2.1088,2.117,2.1219,2.1291,2.1322,2.1342,2.1416,2.1441,2.1545,2.155,2.162,2.1753,2.1805,2.185,2.1972,2.1973,2.1996,2.2048,2.2112,2.2125,2.2137,2.218,2.2196,2.2007,2.2007,2.2007,0,2.1077,2.1188,2.1213,2.1294,2.134,2.1345,2.143,2.1477,2.1572,2.1605,2.1584,2.1751,2.1801,2.1928,2.1957,2.1993,2.2018,2.1987,2.2121,2.2133,2.2144,2.2186,2.2202,2.2009,2.2009,2.2009,2.2009,0,2.1228,2.1305,2.1363,2.1451,2.1505,2.1587,2.1627,2.1679,2.169,2.1724,2.1831,2.1892,2.1979,2.201,2.2024,2.2139,2.2126,2.2113,2.2076,2.2161,2.2201,2.2218,2.2013,2.2012,2.2011,2.2011,0,0,2.1344,2.1444,2.1465,2.1505,2.1586,2.1648,2.1732,2.1815,2.1858,2.1924,2.1996,2.2108,2.2096,2.2146,2.2166,2.2222,2.2315,2.2202,2.2204,2.222,2.2447,2.2456,2.2474,2.2316,2.232,2.2322,2.2441,0,2.1454,2.16,2.1625,2.1754,2.1826,2.1832,2.1906,2.1964,2.1998,2.2066,2.2105,2.2184,2.2162,2.2192,2.2248,2.2292,2.2361,2.2284,2.2385,2.2388,2.2365,2.2495,2.2505,2.2613,2.2456,2.2459,2.2461,0,2.1602,2.1669,2.1803,2.1874,2.1906,2.197,2.2049,2.2113,2.2181,2.2202,2.2258,2.227,2.236,2.2319,2.2443,2.239,2.2433,2.2461,2.2466,2.2476,2.2429,2.2508,2.2649,2.2665,2.2486,2.2484,2.2482,0,2.1673,2.1797,2.1893,2.1927,2.2012,2.2058,2.2096,2.216,2.2209,2.2279,2.2311,2.2391,2.2435,2.2497,2.2532,2.2499,2.2654,2.2616,2.2675,2.2674,2.2707,2.2704,2.2856,2.2736,2.2735,2.2735,2.2735,0,2.1793,2.1875,2.1925,2.1985,2.2078,2.2108,2.2199,2.2237,2.2295,2.2363,2.2375,2.2439,2.2481,2.2553,2.2581,2.268,2.27,2.272,2.2727,2.2719,2.2716,2.2747,2.274,2.274,2.2739,2.2738,2.2737,0,2.1887,2.1924,2.2029,2.2101,2.2121,2.2186,2.2249,2.2308,2.2341,2.2428,2.245,2.2504,2.2588,2.2629,2.2735,2.2754,2.2866,2.2868,2.2842,2.2844,2.29,2.2894,2.3076,2.3102,2.2966,2.2967,2.2968,0,2.1961,2.2023,2.2101,2.2147,2.2185,2.2259,2.2307,2.234,2.2391,2.2473,2.2522,2.2607,2.2675,2.281,2.2861,2.2942,2.2945,2.3004,2.2958,2.2947,2.2946,2.2941,2.2947,2.3012,2.3013,2.3014,2.3015,0,2.2087,2.2102,2.2171,2.2247,2.2304,2.2366,2.2427,2.2464,2.2507,2.2564,2.2649,2.2702,2.2809,2.2893,2.2977,2.3019,2.3025,2.3029,2.3047,2.3039,2.3021,2.3031,2.2863,2.3025,2.3024,2.3023,2.3022,2.3022,2.2173,2.2229,2.2293,2.2369,2.2418,2.2474,2.2533,2.2573,2.2644,2.2731,2.2748,2.2838,2.2905,2.3019,2.3063,2.3136,2.3123,2.3149,2.3156,2.3161,2.3164,2.301,2.3152,2.3152,2.3151,2.3151,2.3151,0,2.23,2.2341,2.2411,2.2494,2.2555,2.2553,2.262,2.2672,2.275,2.2811,2.2878,2.2977,2.3058,2.3114,2.3198,2.3245,2.325,2.3266,2.3262,2.3272,2.3171,2.3147,2.326,2.326,2.326,2.326,2.326,2.326,2.2373,2.2468,2.2491,2.261,2.2651,2.2738,2.2776,2.2829,2.2878,2.2986,2.3053,2.3088,2.3148,2.3236,2.3311,2.3326,2.3356,2.3372,2.3387,2.3291,2.3279,2.3268,2.3246,2.3378,2.3379,2.3482,2.3483,2.3483]},{"header":{"parameterUnit":"m.s-1","parameterCategory":1,"la1":30.2991,"la2":30.254,"lo1":-89.0895,"lo2":-89.0444,"dy":0.0017,"dx":0.0017,"nx":28,"ny":28,"refTime":"2025-05-30T03:00:00:Z","depth":0,"parameterNumber":3,"parameterNumberName":"V-component_of_WINDS"},"data":[0,0,0,0,0,0,0,0,0,0,0,0,0,0,0,0,0,0,0,0,0,0,0,0,0,0,0,0,0,0,0,0,0,0,0,0,0,0,0,0,0,0,0,0,0,0,0,0,0,0,0,0,0,0,0,0,0,0,1.1837,1.1839,0,1.195,1.1952,1.1953,1.1915,1.1912,1.191,1.1908,1.2021,1.2026,1.2031,0,0,0,0,0,0,0,0,0,0,0,0,0,1.1583,1.1588,1.1837,1.1839,1.184,1.195,1.1952,1.1953,1.1915,1.1912,1.1909,1.1907,1.2019,1.2025,1.2032,0,0,0,0,0,0,0,0,0,0,0,0,0,1.1694,1.1589,1.1837,1.1834,1.1835,1.195,1.1952,1.1954,1.1916,1.1912,1.1909,1.1905,1.2017,1.2025,1.2033,1.2156,0,0,1.2057,1.206,0,0,0,0,0,0,0,0,1.1688,1.1704,1.1833,1.1835,1.1836,1.1915,1.1904,1.2021,1.1917,1.1885,1.1908,1.1903,1.1988,1.1998,1.2028,1.2161,1.2166,1.2058,1.2062,1.2066,1.2068,0,0,0,0,0,0,0,1.1681,1.1699,1.1882,1.1835,1.1837,1.1826,1.1838,1.1926,1.1956,1.1888,1.1885,1.1899,1.1988,1.202,1.203,1.2167,1.2057,1.2064,1.2069,1.2072,1.2404,1.2407,0,0,0,0,0,0,1.1673,1.1693,1.1878,1.1885,1.1752,1.1834,1.1847,1.1893,1.1955,1.1961,1.1902,1.1897,1.2008,1.2021,1.2034,1.218,1.2066,1.2073,1.2078,1.24,1.2405,1.2409,0,0,0,0,0,0,1.1667,1.169,1.1874,1.1788,1.1811,1.1842,1.1894,1.1897,1.1929,1.1966,1.1971,1.193,1.2006,1.2023,1.2125,1.2184,1.2077,1.2084,1.2395,1.2401,1.2407,1.2475,0,0,0,0,0,0,1.166,1.1688,1.1737,1.179,1.1816,1.1965,1.1898,1.1902,1.1943,1.1938,1.1993,1.1999,1.2004,1.2113,1.2133,1.2193,1.209,1.239,1.2398,1.2405,1.2468,1.2483,1.2495,0,0,0,0,0,1.1651,1.1751,1.1739,1.1762,1.1877,1.1968,1.1983,1.1989,1.1948,1.1996,1.2019,1.1997,1.2174,1.2124,1.2146,1.2209,1.2386,1.2395,1.2404,1.2461,1.248,1.2495,0,0,0,0,0,0,1.1704,1.1758,1.1746,1.1866,1.1913,1.1962,1.2023,1.2008,1.2067,1.2059,1.2062,1.2075,1.2179,1.2204,1.2148,1.2329,1.2274,1.2288,1.231,1.2328,1.2341,1.2333,1.2097,0,0,0,0,0,1.1729,1.18,1.1843,1.1945,1.197,1.1992,1.2032,1.2032,1.208,1.21,1.2131,1.2177,1.2243,1.2287,1.2349,1.2471,1.2481,1.2524,1.2538,1.2549,1.2561,1.2625,1.2644,1.2439,1.2439,1.2438,0,0,1.1783,1.1821,1.1866,1.1957,1.1993,1.2065,1.2009,1.2088,1.214,1.2111,1.221,1.2234,1.2286,1.2398,1.2448,1.2421,1.262,1.2561,1.257,1.2576,1.2636,1.2655,1.2672,1.2445,1.2444,1.2443,0,0,1.1917,1.1954,1.2042,1.208,1.2135,1.2149,1.217,1.2221,1.2236,1.2335,1.2314,1.2375,1.2489,1.2526,1.256,1.2705,1.2686,1.2725,1.2798,1.286,1.2876,1.289,1.294,1.2959,1.2737,1.2737,1.2737,0,1.1977,1.2086,1.2089,1.217,1.2209,1.2186,1.2274,1.2309,1.2382,1.2409,1.2378,1.2519,1.2552,1.2671,1.2706,1.2735,1.2757,1.272,1.2874,1.2888,1.2901,1.2949,1.2968,1.2742,1.2741,1.2741,1.274,0,1.2155,1.223,1.2294,1.2366,1.2412,1.2496,1.251,1.2556,1.2551,1.2568,1.2667,1.2706,1.2775,1.2803,1.2799,1.2921,1.2902,1.2872,1.2816,1.2925,1.297,1.2989,1.2748,1.2746,1.2745,1.2744,0,0,1.2328,1.2398,1.2422,1.2453,1.2511,1.2568,1.2649,1.2717,1.2756,1.2806,1.2873,1.2968,1.294,1.2979,1.2978,1.3032,1.3142,1.2996,1.2997,1.302,1.3276,1.3298,1.3319,1.3129,1.3133,1.3136,1.3271,0,1.2466,1.261,1.2614,1.2745,1.2813,1.2791,1.2861,1.2903,1.292,1.2978,1.2996,1.3063,1.3022,1.3045,1.3097,1.3118,1.3193,1.3108,1.319,1.3193,1.3177,1.3343,1.3367,1.3493,1.3289,1.3292,1.3294,0,1.2647,1.2703,1.2841,1.2887,1.2916,1.298,1.3041,1.3098,1.3144,1.3151,1.3193,1.3184,1.3264,1.3205,1.3314,1.3256,1.3289,1.3303,1.3308,1.3316,1.325,1.3354,1.3534,1.3553,1.3322,1.332,1.3318,0,1.2758,1.2868,1.2964,1.2991,1.3048,1.3092,1.3117,1.316,1.32,1.3252,1.3278,1.3339,1.3372,1.3419,1.3425,1.3382,1.3534,1.3476,1.3541,1.3541,1.3575,1.3573,1.3762,1.3597,1.3596,1.3596,1.3596,0,1.2912,1.2997,1.3014,1.3073,1.3167,1.3169,1.3261,1.3282,1.332,1.3381,1.3364,1.3422,1.3427,1.3485,1.349,1.3578,1.3594,1.3601,1.3601,1.3603,1.3602,1.3625,1.3616,1.3601,1.36,1.3599,1.3598,0,1.3052,1.3067,1.317,1.3215,1.3228,1.3294,1.3331,1.3387,1.34,1.3478,1.3496,1.3517,1.3585,1.3595,1.3675,1.3678,1.3783,1.3775,1.3768,1.3767,1.3831,1.3825,1.4041,1.4069,1.3887,1.3888,1.389,0,1.315,1.3215,1.3266,1.3306,1.3333,1.3398,1.3439,1.3442,1.3485,1.354,1.3588,1.3654,1.3707,1.3815,1.3836,1.3896,1.3888,1.396,1.3897,1.3895,1.3888,1.3884,1.3889,1.3972,1.3974,1.3976,1.3977,0,1.3321,1.3324,1.3384,1.3445,1.3493,1.3542,1.3587,1.362,1.363,1.3677,1.3746,1.3787,1.3867,1.3932,1.399,1.4014,1.3997,1.3996,1.4014,1.4016,1.4009,1.4013,1.3801,1.3992,1.399,1.3989,1.3988,1.3988,1.3442,1.3498,1.3542,1.3607,1.3642,1.3684,1.3738,1.3758,1.3816,1.3882,1.388,1.3955,1.3995,1.4072,1.41,1.4157,1.4133,1.416,1.4167,1.4173,1.4179,1.4,1.4168,1.4167,1.4167,1.4166,1.4166,0,1.3611,1.3638,1.3698,1.3762,1.3813,1.3793,1.3841,1.3884,1.3951,1.3991,1.4043,1.4121,1.4183,1.4208,1.4268,1.4309,1.4302,1.4324,1.4321,1.4326,1.4197,1.4175,1.4328,1.4328,1.4328,1.4328,1.4328,1.4328,1.3705,1.3798,1.3806,1.3914,1.3939,1.4014,1.4043,1.4081,1.4112,1.42,1.4252,1.4268,1.4301,1.4363,1.4418,1.4423,1.4445,1.4471,1.4473,1.4352,1.4336,1.432,1.4299,1.4476,1.4476,1.4597,1.4598,1.4599]}]]